#timestamp,LO_Frequency,Hit,StdDev 
1655852415.5,286047002.4,N
1655852435.3,286047002.6,N
1655852455.2,286047002.8,N
1655852475.9,286047001.7,N
1655852495.7,286047002.7,N
1655852515.6,286047002.5,N
1655852565.4,286046999.8,E
1655852575.4,286046999.9,N
1655852595.2,286047002.8,P
1655852615.0,286047000.1,N
1655852615.9,286047000.1,N
1655852635.8,286046999.7,N
1655852655.6,286047002.3,N
1655852675.4,286047002.0,N
1655852695.3,286047001.9,N
1655852715.1,286047002.6,N
1655852735.9,286047001.8,N
1655852755.7,286047002.3,N
1655852775.5,286047001.9,N
1655852795.4,286047004.4,Y
1655852815.2,286047001.9,P
1655852835.1,286047002.6,P
1655852836.0,286047002.6,P
1655852855.8,286047002.8,Y
1655852875.6,286047001.1,P
1655852895.5,286046998.1,P
1655852915.3,286046999.0,N
1655852935.1,286046997.2,N
1655852955.9,286046999.6,N
1655852975.7,286046999.1,N
1655852995.6,286046998.4,N
1655853015.4,286046999.3,N
1655853035.2,286046999.4,N
1655853055.1,286046998.5,N
1655853056.0,286046998.5,N
1655853075.8,286046998.5,N
1655853095.6,286046998.7,N
1655853115.5,286046999.1,N
1655853135.3,286046998.6,N
1655853155.2,286046999.2,N
1655853175.9,286046998.9,N
1655853195.7,286046998.8,N
1655853215.6,286046999.3,N
1655853235.4,286046999.2,N
1655853255.2,286046999.2,N
1655853275.1,286046999.4,N
1655853276.0,286046999.4,N
1655853295.8,286046999.2,N
1655853315.7,286046998.4,N
1655853335.5,286046998.4,N
1655853355.3,286046998.2,N
1655853375.2,286046998.4,N
1655853395.0,286047001.2,N
1655853395.9,286047001.2,N
1655853415.8,286047001.1,N
1655853435.6,286046998.3,N
1655853455.4,286046998.1,N
1655853475.3,286046998.3,N
1655853495.1,286046998.7,N
1655853515.8,286046998.7,N
1655853535.7,286046998.2,N
1655853555.5,286046998.2,N
1655853575.4,286047001.2,N
1655853595.2,286047001.2,N
1655853615.0,286047001.0,N
1655853615.9,286047001.0,N
1655853635.8,286047000.7,N
1655853655.6,286047000.8,N
1655853675.4,286046999.2,N
1655853695.3,286046999.3,N
1655853715.1,286046999.6,N
1655853735.9,286046998.9,N
1655853755.7,286046998.3,N
1655853775.5,286046998.5,N
1655853795.4,286046998.7,N
1655853815.2,286046998.3,N
1655853835.0,286046999.1,N
1655853835.9,286046999.1,N
1655853855.8,286046996.6,N
1655853875.6,286046998.7,N
1655853895.5,286046999.3,N
1655853915.3,286046999.3,N
1655853935.1,286047001.2,N
1655853955.9,286047000.7,N
1655853975.7,286047001.0,N
1655853995.5,286046998.6,N
1655854015.4,286046998.1,N
1655854035.2,286047000.8,N
1655854055.1,286047000.7,N
1655854056.0,286047000.7,N
1655854075.8,286046998.6,N
1655854095.6,286046998.1,N
1655854115.5,286046998.6,N
1655854135.3,286046998.7,N
1655854155.1,286046998.1,N
1655854175.9,286046998.6,N
1655854195.7,286047000.8,N
1655854215.6,286047000.8,N
1655854235.4,286047000.9,N
1655854255.2,286046998.5,N
1655854275.1,286046998.5,N
1655854276.0,286046998.5,N
1655854295.8,286047000.9,N
1655854315.7,286047001.2,N
1655854335.5,286046998.2,N
1655854355.3,286047000.8,N
1655854375.2,286047001.1,N
1655854395.0,286047000.9,N
1655854395.9,286047000.9,N
1655854415.8,286047000.9,N
1655854435.6,286047000.9,N
1655854455.4,286046999.7,N
1655854475.3,286047000.0,N
1655854495.1,286047001.1,N
1655854515.8,286047000.1,N
1655854535.7,286047002.8,N
1655854555.5,286047000.3,N
1655854575.4,286047000.1,N
1655854595.2,286047002.7,N
1655854615.0,286047000.2,N
1655854615.9,286047000.2,N
1655854635.8,286047000.0,N
1655854655.6,286047000.5,N
1655854675.5,286047000.4,N
1655854695.3,286047002.8,N
1655854715.1,286047000.9,N
1655854735.9,286047001.0,N
1655854755.7,286046999.7,N
1655854775.5,286047000.1,N
1655854795.4,286047002.4,N
1655854815.2,286047000.4,N
1655854835.1,286046998.2,N
1655854836.0,286046998.2,N
1655854855.8,286046998.4,N
1655854875.6,286046998.6,N
1655854895.5,286047000.7,N
1655854915.3,286047001.0,N
1655854935.1,286047000.5,N
1655854955.9,286046998.3,N
1655854975.7,286046998.3,N
1655854995.6,286047001.1,N
1655855015.4,286047000.7,N
1655855035.2,286047000.9,N
1655855055.1,286047000.3,N
1655855056.0,286047000.3,N
1655855075.8,286047002.3,N
1655855095.6,286046999.8,N
1655855115.5,286046999.7,N
1655855135.3,286047000.1,N
1655855155.2,286047001.7,N
1655855175.9,286047001.8,N
1655855195.7,286047001.9,N
1655855215.6,286047002.5,N
1655855235.4,286047002.5,N
1655855255.2,286047002.0,N
1655855275.1,286047002.5,N
1655855276.0,286047002.5,N
1655855295.8,286047002.4,N
1655855315.7,286047000.7,N
1655855335.5,286047000.7,N
1655855355.3,286046998.9,N
1655855375.2,286046997.7,N
1655855395.0,286046997.4,N
1655855395.9,286046997.4,N
1655855415.8,286046997.4,N
1655855435.6,286046997.3,N
1655855455.4,286046997.2,N
1655855475.3,286046997.0,N
1655855495.1,286046999.3,N
1655855515.8,286046999.6,N
1655855535.7,286046999.2,N
1655855555.5,286046999.3,N
1655855575.4,286046996.6,N
1655855595.2,286046999.5,N
1655855615.0,286046996.8,N
1655855615.9,286046996.8,N
1655855635.8,286046997.2,N
1655855655.6,286046997.2,N
1655855675.5,286046996.8,N
1655855695.3,286046998.0,N
1655855715.1,286046999.6,N
1655855735.9,286046996.7,N
1655855755.7,286046997.8,N
1655855775.5,286046997.2,N
1655855795.4,286046999.1,N
1655855815.2,286046996.7,N
1655855835.1,286046997.4,N
1655855836.0,286046997.4,N
1655855855.8,286046997.4,N
1655855875.6,286046996.7,N
1655855895.5,286046996.6,Y
1655855915.3,286047000.3,P
1655855935.2,286047000.4,N
1655855955.9,286046999.9,N
1655855975.7,286047000.0,N
1655855995.6,286046999.8,N
